NOAA 16 DEB, 41285

Orbit data source: Space-Track

NOAA 16 DEB, 41285 is space debris in SSO originally from a launch on Thu, 21 Sep 2000 UTC launched from the Air Force Western Test Range (AFWTR). Debris objects in space refer to the collection of defunct objects orbiting the Earth. Examples of debris include non-operational satellites, rocket bodies, and fragments generated from explosions, collisions, or faulty payload assembly.

Loading next visibility...
Identifier
41285, 2000-055GM
Orbit
SSO
Country
Flag of USUS
Related business
Manufacturer
Unknown
Mission
Spacecraft
Bus & Motor
Unknown
Mass
Unknown
Launch date (UTC)
2000-09-21 (26 years ago)
Launch vehicle
Unknown
Launch site
Air Force Western Test Range (AFWTR)
Object type
Payload
Rocket body
Debris
Shape & HBR
Unknown shape, 0.1 m
Radar Cross Section
Medium (>0.1 m² and <1 m²)

Expand to show TLE details & history
Last TLE update: 2 days ago

TLE from 2 days ago
0 NOAA 16 DEB
1 41285U 00055GM  26170.63375978  .00002194  00000-0  90579-3 0  9993
2 41285  98.6603 237.5102 0047830   4.0361 356.1196 14.27163392541830
Epoch: 2026-06-19T15:12Z
TLE epoch observation values (Epoch: 2026-06-19T15:12:36.844Z)
Latitude
-0.00006°
Longitude
101.49676°
Altitude
769.888 km
Speed
7.487 km/s
True Right ascension
15h 50m 02s
True Declination
0° 00' 00"
Sunlit
Object was in full shadow at epoch
Visualization orbit readout
Latitude
Unknown
Longitude
Unknown
Altitude
Unknown
Speed
Unknown
Apparent Right ascension
Unknown
Apparent Declination
Unknown
Sunlit
N/A
Visualization observer readout
Local Sidereal Time
14:10:46
Azimuth
Unknown
Elevation
Unknown
Doppler factor
Unknown
Orbital elements
Apogee altitude
832.7 km
Perigee altitude
764.049 km
Semi-major axis
7,176.512 km
Eccentricity
0.00478
Inclination
98.6603°
RAAN
237.5102°
Arg. of periapsis
4.0361°
True anomaly
356.08229°
Mean anomaly
356.1196°
Eccentric anomaly
356.10097°
Mean motion
3.57004 °/min
Orbital period
100.84 mins
BSTAR
0.00090579
Loading maneuver chart data...
Computing Atmospheric mass density...

Documentation

Showing up to 5 results
|